This is the latest recevied weather packets stored in our database for station/object IZ6UQU-13. If no packets are shown the sender has not sent any weather packets the latest 1 day(s).
| Time | Temp. | Humidity | Pressure | Rain* | Wind** | Luminosity | Snow |
|---|---|---|---|---|---|---|---|
| 1778093702 | 13.89° C | 79% | 954.9 hPa | 0 mm | - | - | - |
| 1778089502 | 15° C | 74% | 954.5 hPa | 0 mm | - | - | - |
| 1778088902 | 15.56° C | 74% | 954.4 hPa | 0 mm | - | - | - |
| 1778088302 | 15.56° C | 73% | 954.3 hPa | 0 mm | - | - | - |
| 1778088002 | 15.56° C | 73% | 954.2 hPa | 0 mm | - | - | - |
| 1778087702 | 15.56° C | 74% | 954.2 hPa | 0 mm | - | - | - |
| 1778086202 | 15.56° C | 71% | 954.2 hPa | 0 mm | - | - | - |
| 1778085902 | 15.56° C | 71% | 954.2 hPa | 0 mm | - | - | - |
| 1778085602 | 16.11° C | 71% | 954.3 hPa | 0 mm | - | - | - |
| 1778084402 | 16.11° C | 72% | 954.3 hPa | 0 mm | - | - | - |
| 1778083802 | 16.67° C | 72% | 954.3 hPa | 0 mm | - | - | - |
| 1778083202 | 16.67° C | 71% | 954.5 hPa | 0 mm | - | - | - |
| 1778069102 | 18.33° C | 68% | 954.9 hPa | 0 mm | - | - | - |
| 1778066702 | 17.78° C | 88% | 955.2 hPa | 0 mm | - | - | - |
| 1778066102 | 15.56° C | 96% | 955.3 hPa | 0 mm | - | - | - |
| 1778064603 | 13.89° C | 94% | 955.3 hPa | 0 mm | - | - | - |
| 1778064303 | 14.44° C | 97% | 955.4 hPa | 0 mm | - | - | - |
| 1778064003 | 13.33° C | 98% | 955.4 hPa | 0 mm | - | - | - |
| 1778063703 | 13.33° C | 97% | 955.4 hPa | 0 mm | - | - | - |
| 1778063103 | 12.78° C | 97% | 955.4 hPa | 0 mm | - | - | - |
| 1778062503 | 12.78° C | 97% | 955.5 hPa | 0 mm | - | - | - |
| 1778062203 | 12.78° C | 97% | 955.5 hPa | 0 mm | - | - | - |
| 1778061908 | 12.78° C | 98% | 955.5 hPa | 0 mm | - | - | - |
| 1778061303 | 12.78° C | 98% | 955.7 hPa | 0 mm | - | - | - |
| 1778060703 | 12.78° C | 99% | 955.7 hPa | 0 mm | - | - | - |
* Rain latest hour (hover to see other rain measurements)
** Current wind speed in m/s (hover to see current wind gust speed)